[[{"header":{"parameterUnit":"m.s-1","parameterCategory":1,"la1":30.2991,"la2":30.254,"lo1":-89.0895,"lo2":-89.0444,"dy":0.0017,"dx":0.0017,"nx":28,"ny":28,"refTime":"2024-08-15T03:00:00:Z","depth":0,"parameterNumber":2,"parameterNumberName":"U-component_of_WINDS"},"data":[0,0,0,0,0,0,0,0,0,0,0,0,0,0,0,0,0,0,0,0,0,0,0,0,0,0,0,0,0,0,0,0,0,0,0,0,0,0,0,0,0,0,0,0,0,0,0,0,0,0,0,0,0,0,0,0,0,0,-1.6712,-1.6713,0,-1.6726,-1.6727,-1.6727,-1.668,-1.6679,-1.6678,-1.6676,-1.6693,-1.6694,-1.6696,0,0,0,0,0,0,0,0,0,0,0,0,0,-1.6648,-1.6649,-1.6712,-1.6713,-1.6713,-1.6726,-1.6727,-1.6727,-1.6681,-1.6679,-1.6677,-1.6676,-1.6692,-1.6694,-1.6696,0,0,0,0,0,0,0,0,0,0,0,0,0,-1.667,-1.665,-1.6712,-1.6691,-1.669,-1.6726,-1.6727,-1.6727,-1.6681,-1.6679,-1.6677,-1.6675,-1.6691,-1.6694,-1.6696,-1.6755,0,0,-1.6704,-1.6705,0,0,0,0,0,0,0,0,-1.6669,-1.6673,-1.6694,-1.6693,-1.6691,-1.6699,-1.671,-1.6736,-1.6682,-1.6684,-1.6676,-1.6674,-1.6697,-1.6699,-1.6706,-1.6755,-1.6756,-1.6705,-1.6706,-1.6707,-1.6708,0,0,0,0,0,0,0,-1.6668,-1.6672,-1.6718,-1.6695,-1.6693,-1.6682,-1.6683,-1.6715,-1.6702,-1.6684,-1.6681,-1.6683,-1.6695,-1.6704,-1.6706,-1.6756,-1.6705,-1.6707,-1.6708,-1.6709,-1.6855,-1.6857,0,0,0,0,0,0,-1.6669,-1.6671,-1.6718,-1.6718,-1.6675,-1.6685,-1.6686,-1.6699,-1.6702,-1.67,-1.6685,-1.6681,-1.67,-1.6703,-1.6706,-1.6775,-1.6707,-1.671,-1.6711,-1.6853,-1.6856,-1.6858,0,0,0,0,0,0,-1.6667,-1.6673,-1.6717,-1.6694,-1.6699,-1.6688,-1.6703,-1.67,-1.6708,-1.6702,-1.67,-1.6695,-1.6699,-1.6703,-1.6743,-1.6775,-1.6711,-1.6713,-1.685,-1.6854,-1.6857,-1.6913,0,0,0,0,0,0,-1.6666,-1.6673,-1.6694,-1.6695,-1.67,-1.6753,-1.6705,-1.6702,-1.6713,-1.6708,-1.6711,-1.671,-1.6697,-1.6739,-1.6746,-1.6777,-1.6715,-1.6847,-1.6852,-1.6856,-1.6908,-1.6918,-1.6926,0,0,0,0,0,-1.6663,-1.671,-1.6696,-1.6702,-1.6727,-1.6755,-1.6758,-1.6742,-1.6716,-1.6738,-1.6734,-1.671,-1.6771,-1.6744,-1.6751,-1.6784,-1.6845,-1.685,-1.6855,-1.6904,-1.6916,-1.6926,0,0,0,0,0,0,-1.6715,-1.671,-1.6694,-1.6742,-1.6749,-1.6747,-1.6774,-1.6755,-1.677,-1.6765,-1.6744,-1.6746,-1.679,-1.6791,-1.6761,-1.6841,-1.6803,-1.681,-1.6838,-1.6849,-1.6858,-1.6857,-1.6718,0,0,0,0,0,-1.6731,-1.6754,-1.6749,-1.6791,-1.6796,-1.6785,-1.6796,-1.6783,-1.679,-1.6793,-1.6792,-1.68,-1.6821,-1.6835,-1.6854,-1.6908,-1.6909,-1.6934,-1.6943,-1.6951,-1.6957,-1.6986,-1.6997,-1.6875,-1.6875,-1.6875,0,0,-1.6766,-1.6766,-1.6782,-1.6802,-1.6806,-1.683,-1.6787,-1.6815,-1.6833,-1.6797,-1.6835,-1.6835,-1.6843,-1.689,-1.6911,-1.6893,-1.6991,-1.6957,-1.6963,-1.6965,-1.6992,-1.7004,-1.7014,-1.6879,-1.6878,-1.6877,0,0,-1.6842,-1.6845,-1.688,-1.6885,-1.6892,-1.6884,-1.6893,-1.6894,-1.6892,-1.693,-1.6903,-1.6925,-1.6962,-1.6968,-1.6977,-1.7056,-1.7035,-1.7063,-1.711,-1.7138,-1.7148,-1.7156,-1.7185,-1.7195,-1.7069,-1.7069,-1.7069,0,-1.6885,-1.692,-1.6902,-1.6931,-1.6941,-1.6909,-1.6946,-1.6952,-1.6965,-1.6972,-1.6951,-1.6996,-1.6999,-1.7048,-1.7067,-1.7075,-1.7085,-1.7062,-1.7148,-1.7156,-1.7164,-1.7191,-1.7202,-1.7072,-1.7072,-1.7072,-1.7071,0,-1.6973,-1.6998,-1.7026,-1.7038,-1.7051,-1.7085,-1.7071,-1.7087,-1.7073,-1.7068,-1.7107,-1.711,-1.7128,-1.7139,-1.7126,-1.7186,-1.7175,-1.7151,-1.7113,-1.7179,-1.7204,-1.7214,-1.7077,-1.7076,-1.7075,-1.7074,0,0,-1.7081,-1.7083,-1.7093,-1.7099,-1.7104,-1.7123,-1.7155,-1.7173,-1.7187,-1.7197,-1.7224,-1.7256,-1.7234,-1.7244,-1.7231,-1.7256,-1.7319,-1.7229,-1.7229,-1.7246,-1.7386,-1.7404,-1.7416,-1.7306,-1.7307,-1.7309,-1.7386,0,-1.7156,-1.721,-1.7194,-1.7248,-1.7271,-1.7242,-1.727,-1.7276,-1.7273,-1.7292,-1.7288,-1.7311,-1.7281,-1.7286,-1.731,-1.7307,-1.7347,-1.7301,-1.7331,-1.7332,-1.7329,-1.7429,-1.7448,-1.752,-1.7395,-1.7397,-1.7398,0,-1.725,-1.7263,-1.732,-1.7321,-1.7331,-1.7356,-1.7371,-1.739,-1.7398,-1.7393,-1.7404,-1.7386,-1.7419,-1.7381,-1.7426,-1.7395,-1.7406,-1.7406,-1.7409,-1.7411,-1.7369,-1.7434,-1.7543,-1.7554,-1.7413,-1.7412,-1.7411,0,-1.7324,-1.7356,-1.7394,-1.7399,-1.7402,-1.742,-1.7423,-1.7428,-1.744,-1.7454,-1.7461,-1.7479,-1.7489,-1.7503,-1.7492,-1.7465,-1.7538,-1.75,-1.7536,-1.7536,-1.7552,-1.7552,-1.7665,-1.756,-1.756,-1.756,-1.756,0,-1.7409,-1.7445,-1.7427,-1.745,-1.7489,-1.7472,-1.7511,-1.751,-1.7515,-1.7538,-1.7514,-1.7537,-1.752,-1.7541,-1.7532,-1.7571,-1.7575,-1.7573,-1.757,-1.7575,-1.7576,-1.7582,-1.7577,-1.7563,-1.7562,-1.7561,-1.7561,0,-1.7498,-1.7487,-1.7526,-1.7525,-1.7526,-1.7555,-1.7555,-1.7577,-1.7571,-1.7601,-1.7607,-1.7599,-1.7623,-1.7612,-1.7638,-1.7632,-1.7681,-1.7672,-1.7679,-1.7676,-1.7713,-1.771,-1.7835,-1.785,-1.7736,-1.7737,-1.7738,0,-1.7553,-1.7579,-1.7581,-1.7595,-1.7598,-1.7621,-1.7632,-1.7616,-1.763,-1.764,-1.7661,-1.7683,-1.7699,-1.7739,-1.7736,-1.7755,-1.7746,-1.7788,-1.7749,-1.7753,-1.7747,-1.7746,-1.7748,-1.7796,-1.7798,-1.7799,-1.78,0,-1.7652,-1.7645,-1.7663,-1.7679,-1.7694,-1.7706,-1.7716,-1.7729,-1.7713,-1.7729,-1.7753,-1.7766,-1.7791,-1.7814,-1.7831,-1.7834,-1.7815,-1.7812,-1.7822,-1.7827,-1.783,-1.7829,-1.77,-1.7809,-1.7808,-1.7808,-1.7807,-1.7807,-1.7725,-1.7748,-1.7753,-1.7773,-1.7779,-1.7789,-1.781,-1.7807,-1.7826,-1.7845,-1.7834,-1.7862,-1.787,-1.7891,-1.7896,-1.7919,-1.7902,-1.7916,-1.7919,-1.7923,-1.7928,-1.7826,-1.7922,-1.7921,-1.7921,-1.7921,-1.7921,0,-1.7823,-1.7825,-1.7844,-1.7859,-1.7875,-1.7855,-1.7865,-1.7881,-1.7905,-1.7913,-1.793,-1.7957,-1.7979,-1.7977,-1.7997,-1.8015,-1.8007,-1.8021,-1.8019,-1.8021,-1.7941,-1.7931,-1.8027,-1.8027,-1.8027,-1.8027,-1.8027,-1.8027,-1.7876,-1.7913,-1.7907,-1.7947,-1.7949,-1.7975,-1.7983,-1.7992,-1.7998,-1.803,-1.8047,-1.8046,-1.805,-1.807,-1.809,-1.8089,-1.8097,-1.8115,-1.8111,-1.8037,-1.8026,-1.8016,-1.8006,-1.8117,-1.8117,-1.8188,-1.8189,-1.8189]},{"header":{"parameterUnit":"m.s-1","parameterCategory":1,"la1":30.2991,"la2":30.254,"lo1":-89.0895,"lo2":-89.0444,"dy":0.0017,"dx":0.0017,"nx":28,"ny":28,"refTime":"2024-08-15T03:00:00:Z","depth":0,"parameterNumber":3,"parameterNumberName":"V-component_of_WINDS"},"data":[0,0,0,0,0,0,0,0,0,0,0,0,0,0,0,0,0,0,0,0,0,0,0,0,0,0,0,0,0,0,0,0,0,0,0,0,0,0,0,0,0,0,0,0,0,0,0,0,0,0,0,0,0,0,0,0,0,0,3.4664,3.4665,0,3.4719,3.472,3.472,3.4713,3.4712,3.4712,3.4711,3.4763,3.4765,3.4768,0,0,0,0,0,0,0,0,0,0,0,0,0,3.4549,3.4551,3.4664,3.4665,3.4665,3.4719,3.472,3.472,3.4714,3.4712,3.4711,3.471,3.4762,3.4765,3.4768,0,0,0,0,0,0,0,0,0,0,0,0,0,3.4601,3.4552,3.4664,3.4669,3.467,3.4719,3.472,3.4721,3.4714,3.4712,3.4711,3.471,3.4762,3.4765,3.4768,3.4815,0,0,3.4778,3.478,0,0,0,0,0,0,0,0,3.4598,3.4605,3.4667,3.4668,3.467,3.4708,3.4698,3.4752,3.4714,3.4697,3.4711,3.4709,3.4746,3.475,3.4763,3.4817,3.482,3.4779,3.4781,3.4782,3.4783,0,0,0,0,0,0,0,3.4594,3.4603,3.4686,3.4668,3.4669,3.4666,3.4672,3.4708,3.4728,3.4698,3.4698,3.4705,3.4746,3.476,3.4764,3.482,3.4778,3.4781,3.4783,3.4785,3.4914,3.4916,0,0,0,0,0,0,3.459,3.46,3.4684,3.4687,3.463,3.467,3.4676,3.4697,3.4727,3.4731,3.4706,3.4704,3.4755,3.4761,3.4766,3.4822,3.4782,3.4785,3.4787,3.4913,3.4915,3.4916,0,0,0,0,0,0,3.4588,3.4598,3.4682,3.4643,3.4654,3.4673,3.4696,3.4699,3.4713,3.4733,3.4736,3.4717,3.4754,3.4762,3.4803,3.4824,3.4787,3.479,3.4911,3.4913,3.4915,3.4934,0,0,0,0,0,0,3.4584,3.4597,3.4616,3.4644,3.4656,3.4719,3.4698,3.4701,3.4719,3.4717,3.4744,3.4748,3.4754,3.4798,3.4806,3.4828,3.4792,3.4909,3.4912,3.4915,3.4932,3.4937,3.4941,0,0,0,0,0,3.458,3.4619,3.4617,3.4627,3.468,3.472,3.4727,3.4734,3.4721,3.4739,3.4752,3.4747,3.482,3.4802,3.4811,3.4834,3.4908,3.4911,3.4914,3.493,3.4936,3.4941,0,0,0,0,0,0,3.4591,3.4622,3.4621,3.467,3.4692,3.4719,3.4742,3.474,3.4766,3.4764,3.4771,3.4777,3.4818,3.4831,3.481,3.488,3.4862,3.4867,3.4871,3.4877,3.4881,3.4876,3.4795,0,0,0,0,0,3.46,3.463,3.4655,3.4696,3.4707,3.4723,3.474,3.4744,3.4768,3.4777,3.4793,3.4814,3.4842,3.486,3.4887,3.4934,3.4939,3.4954,3.4959,3.4962,3.4966,3.499,3.4997,3.4927,3.4927,3.4927,0,0,3.4616,3.4637,3.4656,3.4699,3.4717,3.4747,3.4731,3.4764,3.4786,3.4781,3.4821,3.4834,3.4858,3.4902,3.4922,3.4913,3.4987,3.4967,3.4969,3.4971,3.4994,3.5001,3.5007,3.4929,3.4929,3.4928,0,0,3.4662,3.4682,3.4717,3.4736,3.4764,3.4774,3.4782,3.4809,3.4818,3.4858,3.4855,3.4881,3.4929,3.4946,3.4961,3.5014,3.5009,3.5022,3.5046,3.5069,3.5074,3.5079,3.5096,3.5102,3.5026,3.5026,3.5026,0,3.4679,3.4726,3.4735,3.4769,3.4786,3.4785,3.482,3.4837,3.4872,3.4883,3.4874,3.4934,3.4951,3.4998,3.501,3.5023,3.5032,3.5018,3.5073,3.5078,3.5083,3.5099,3.5106,3.5028,3.5028,3.5027,3.5027,0,3.4745,3.4777,3.4802,3.4837,3.4857,3.4891,3.4904,3.4924,3.4926,3.4937,3.4977,3.4997,3.5027,3.5039,3.5041,3.5086,3.508,3.5072,3.5053,3.5091,3.5106,3.5112,3.503,3.5029,3.5029,3.5028,0,0,3.4798,3.4838,3.4846,3.4862,3.4892,3.4917,3.495,3.4981,3.4997,3.5021,3.5047,3.5088,3.5081,3.5098,3.5102,3.5123,3.5161,3.5112,3.5113,3.5119,3.521,3.5214,3.5222,3.5159,3.516,3.5161,3.5207,0,3.4846,3.4905,3.4915,3.4966,3.4995,3.4995,3.5023,3.5044,3.5055,3.508,3.5092,3.512,3.5109,3.5119,3.514,3.5152,3.5179,3.5149,3.5182,3.5183,3.5174,3.523,3.5235,3.5278,3.5213,3.5214,3.5215,0,3.4909,3.4936,3.4991,3.5017,3.5029,3.5055,3.5083,3.5108,3.5131,3.5137,3.5157,3.5158,3.5191,3.5172,3.5216,3.5196,3.521,3.5218,3.5219,3.5221,3.52,3.5231,3.5292,3.5297,3.5225,3.5224,3.5223,0,3.494,3.499,3.5029,3.5042,3.5074,3.5091,3.5105,3.5128,3.5145,3.517,3.5181,3.5209,3.5223,3.5244,3.5252,3.5238,3.5295,3.5278,3.53,3.5299,3.531,3.5309,3.5372,3.5322,3.5322,3.5322,3.5322,0,3.4991,3.5025,3.5043,3.5067,3.5104,3.5113,3.5149,3.5162,3.5182,3.5207,3.5208,3.5231,3.5242,3.5266,3.5273,3.5307,3.5314,3.5319,3.532,3.5318,3.5317,3.5326,3.5323,3.5324,3.5324,3.5323,3.5323,0,3.5032,3.5046,3.5088,3.5115,3.5122,3.5148,3.517,3.5192,3.5203,3.5235,3.5243,3.5259,3.5288,3.5299,3.5334,3.5339,3.5378,3.5377,3.537,3.537,3.5391,3.5388,3.546,3.5469,3.5415,3.5416,3.5416,0,3.5063,3.5088,3.5118,3.5135,3.515,3.5178,3.5196,3.5207,3.5225,3.5254,3.5272,3.5301,3.5325,3.5371,3.5385,3.5411,3.541,3.5434,3.5414,3.5411,3.5408,3.5406,3.5408,3.5437,3.5437,3.5438,3.5438,0,3.5115,3.5121,3.5148,3.5177,3.5199,3.5222,3.5244,3.5258,3.5272,3.5292,3.5322,3.5341,3.5377,3.5405,3.5432,3.5445,3.5443,3.5444,3.545,3.5448,3.5442,3.5443,3.5378,3.5442,3.5442,3.5441,3.5441,3.5441,3.5151,3.5173,3.5197,3.5227,3.5245,3.5266,3.5288,3.5302,3.5327,3.5358,3.5362,3.5394,3.5416,3.5452,3.5466,3.549,3.5484,3.5493,3.5495,3.5497,3.5497,3.544,3.5495,3.5495,3.5495,3.5495,3.5495,0,3.5202,3.5218,3.5245,3.5276,3.5299,3.5298,3.5322,3.5341,3.5369,3.539,3.5413,3.5447,3.5475,3.5491,3.5518,3.5534,3.5534,3.5541,3.5539,3.5541,3.5502,3.5494,3.554,3.554,3.554,3.554,3.554,3.554,3.5231,3.5268,3.5277,3.5322,3.5338,3.5369,3.5383,3.5402,3.5419,3.5457,3.548,3.5491,3.551,3.5538,3.5562,3.5567,3.5576,3.5583,3.5586,3.5549,3.5544,3.554,3.5531,3.5585,3.5585,3.5622,3.5623,3.5623]}]]